STARLINK-2507 (48316 NORAD) Tracking and Keplerian Element Data

This shows tracking and keplerian element data for the satellite.

Feedback or suggestion? Click here.




ElementValue
Catalog48316
NameSTARLINK-2507
Epoch Orbit1505
Epoch Day211.05219757
Epoch Year2021
RAAN89.7351
Inclination53.0598
Eccentricity0.0001827
Argument of Perigee89.2381
Mean Anonmoly270.8818
Mean Motion15.06398118
Decay Rate-6.86E-06
L11 48316U 21036AS 21211.05219757 -.00000686 00000-0 -27171-4 0 9991
L22 48316 53.0598 89.7351 0001827 89.2381 270.8818 15.06398118 15053

Live tracking and technical data element details for STARLINK-2507 (NORAD 48316). STARLINK-2507 can be tracked NOW for your location showing map with azimuth and elevation plus other details from your city location.

Track the satellite on the map from your city or location and see movement details for azimuth, elevation, latitude, longitude, range, height, and movement on the map or in text.







IsCatalogInMostPopularTable: catalog: 48316, numindb: 34
Update: records affected: 1



GetName: 48316 STARLINK-2507

Hit Count: updated at: Sat, 31 Jul 2021 14:32:00 GMT